Location: Cicognara
(44.9500°N, 10.4667°E)
Time: 06:57:44
(UTC+00:00)

Cosmos 2237 Rocket - Pass Details

Date: 20 June 2021
Orbit: 835 x 850 km, 71.0° (Epoch: 28 July)

Event Time Altitude Azimuth Distance (km) Brightness Sun altitude
Exits shadow 20:41:35 16° 124° (SE) 2,057 3.6 -12.7°
Maximum altitude 20:43:29 19° 99° (E) 1,906 3.6 -12.9°
Drops below altitude 10° 20:47:15 10° 57° (ENE) 2,452 4.6 -13.3°
Sets 20:50:23 0° 40° (NE) 3,392 5.5 -13.6°
